Time,TemperatureF,DewpointF,PressureIn,WindDirection,WindDirectionDegrees,WindSpeedMPH,WindSpeedGustMPH,Humidity,HourlyPrecipIn,Conditions,Clouds,dailyrainin,SoftwareType,DateUTC
2013-11-23 00:12:00,29.0,27.0,30.53,NW,310,4.0,7.0,91,0.00,,,0.05,,2013-11-23 06:12:00,
2013-11-23 00:22:00,28.0,26.0,30.53,NW,320,4.0,9.0,92,0.00,,,0.05,,2013-11-23 06:22:00,
2013-11-23 00:42:00,28.0,26.0,30.53,NW,306,3.0,7.0,92,0.00,,,0.05,,2013-11-23 06:42:00,
2013-11-23 00:52:00,28.0,26.0,30.53,NW,323,5.0,8.0,93,0.00,,,0.05,,2013-11-23 06:52:00,
2013-11-23 01:11:00,27.0,25.0,30.53,NW,307,3.0,7.0,93,0.00,,,0.05,,2013-11-23 07:11:00,
2013-11-23 01:21:00,27.0,25.0,30.52,NW,305,3.0,7.0,93,0.00,,,0.05,,2013-11-23 07:21:00,
2013-11-23 01:42:00,27.0,25.0,30.53,WNW,296,3.0,7.0,93,0.00,,,0.05,,2013-11-23 07:42:00,
2013-11-23 01:52:00,26.0,24.0,30.53,WNW,296,4.0,9.0,92,0.00,,,0.05,,2013-11-23 07:52:00,
2013-11-23 02:21:00,26.0,24.0,30.53,West,271,4.0,8.0,91,0.00,,,0.05,,2013-11-23 08:21:00,
2013-11-23 02:42:00,26.0,24.0,30.53,NW,319,3.0,6.0,91,0.00,,,0.02,,2013-11-23 08:42:00,
2013-11-23 02:52:00,26.0,24.0,30.53,NW,307,2.0,8.0,91,0.00,,,0.02,,2013-11-23 08:52:00,
2013-11-23 03:12:00,26.0,24.0,30.52,WNW,289,4.0,9.0,91,0.00,,,0.02,,2013-11-23 09:12:00,
2013-11-23 03:22:00,26.0,24.0,30.53,West,280,4.0,8.0,92,0.00,,,0.02,,2013-11-23 09:22:00,
2013-11-23 03:43:00,26.0,24.0,30.53,NW,306,4.0,10.0,92,0.00,,,0.02,,2013-11-23 09:43:00,
2013-11-23 03:54:00,25.0,23.0,30.52,NW,321,5.0,9.0,91,0.00,,,0.02,,2013-11-23 09:54:00,
2013-11-23 04:12:00,25.0,22.0,30.51,NW,321,5.0,9.0,88,0.00,,,0.02,,2013-11-23 10:12:00,
2013-11-23 04:23:00,25.0,21.0,30.51,NW,315,5.0,10.0,86,0.00,,,0.02,,2013-11-23 10:23:00,
2013-11-23 04:42:00,25.0,21.0,30.51,WNW,284,6.0,10.0,86,0.00,,,0.01,,2013-11-23 10:42:00,
2013-11-23 04:52:00,25.0,21.0,30.51,NW,313,8.0,11.0,84,0.00,,,0.01,,2013-11-23 10:52:00,
2013-11-23 05:22:00,24.0,19.0,30.51,WNW,302,7.0,11.0,82,0.00,,,0.01,,2013-11-23 11:22:00,
2013-11-23 05:43:00,24.0,19.0,30.52,NW,321,6.0,11.0,82,0.00,,,0.01,,2013-11-23 11:43:00,
2013-11-23 05:52:00,24.0,20.0,30.53,NW,306,6.0,12.0,83,0.00,,,0.01,,2013-11-23 11:52:00,
2013-11-23 06:12:00,24.0,20.0,30.53,NW,315,6.0,12.0,83,0.00,,,0.01,,2013-11-23 12:12:00,
2013-11-23 06:22:00,24.0,20.0,30.53,NW,323,6.0,15.0,83,0.00,,,0.01,,2013-11-23 12:22:00,
2013-11-23 06:42:00,23.0,19.0,30.53,NW,311,5.0,10.0,83,0.00,,,0.01,,2013-11-23 12:42:00,
2013-11-23 06:52:00,23.0,19.0,30.54,NW,322,9.0,15.0,83,0.00,,,0.01,,2013-11-23 12:52:00,
2013-11-23 07:11:00,23.0,19.0,30.53,WNW,303,9.0,15.0,83,0.00,,,0.01,,2013-11-23 13:11:00,
2013-11-23 07:22:00,23.0,19.0,30.54,NW,317,7.0,13.0,84,0.00,,,0.01,,2013-11-23 13:22:00,
2013-11-23 07:42:00,23.0,19.0,30.55,NW,315,9.0,15.0,84,0.00,,,0.01,,2013-11-23 13:42:00,
2013-11-23 07:52:00,23.0,19.0,30.56,NW,314,7.0,14.0,84,0.00,,,0.01,,2013-11-23 13:52:00,
2013-11-23 08:11:00,23.0,19.0,30.57,NW,311,7.0,12.0,84,0.00,,,0.01,,2013-11-23 14:11:00,
2013-11-23 08:21:00,24.0,20.0,30.58,WNW,290,7.0,14.0,83,0.00,,,0.01,,2013-11-23 14:21:00,
2013-11-23 08:42:00,24.0,19.0,30.58,North,351,11.0,20.0,82,0.00,,,0.01,,2013-11-23 14:42:00,
2013-11-23 08:52:00,24.0,19.0,30.59,NNW,336,8.0,17.0,82,0.00,,,0.01,,2013-11-23 14:52:00,
2013-11-23 09:11:00,24.0,19.0,30.59,NNW,332,9.0,16.0,82,0.00,,,0.01,,2013-11-23 15:11:00,
2013-11-23 09:22:00,25.0,20.0,30.60,NW,312,10.0,19.0,82,0.00,,,0.01,,2013-11-23 15:22:00,
2013-11-23 09:43:00,25.0,20.0,30.60,NW,314,9.0,18.0,81,0.00,,,0.00,,2013-11-23 15:43:00,
2013-11-23 09:54:00,25.0,20.0,30.60,North,360,8.0,15.0,80,0.00,,,0.00,,2013-11-23 15:54:00,
2013-11-23 10:13:00,25.0,20.0,30.61,North,355,6.0,19.0,80,0.00,,,0.00,,2013-11-23 16:13:00,
2013-11-23 10:23:00,25.0,19.0,30.61,NNW,347,10.0,18.0,79,0.00,,,0.00,,2013-11-23 16:23:00,
2013-11-23 10:43:00,26.0,20.0,30.61,NNW,347,12.0,19.0,77,0.00,,,0.00,,2013-11-23 16:43:00,
2013-11-23 10:53:00,25.0,19.0,30.62,North,360,11.0,20.0,77,0.00,,,0.00,,2013-11-23 16:53:00,
2013-11-23 11:12:00,25.0,19.0,30.62,NW,321,10.0,19.0,76,0.00,,,0.00,,2013-11-23 17:12:00,
2013-11-23 11:22:00,25.0,18.0,30.62,NNW,339,11.0,21.0,74,0.00,,,0.00,,2013-11-23 17:22:00,
2013-11-23 11:42:00,25.0,18.0,30.62,North,350,11.0,17.0,75,0.00,,,0.00,,2013-11-23 17:42:00,
2013-11-23 11:52:00,25.0,18.0,30.62,North,355,10.0,20.0,75,0.00,,,0.00,,2013-11-23 17:52:00,
2013-11-23 12:12:00,25.0,18.0,30.62,NNW,336,11.0,21.0,75,0.00,,,0.00,,2013-11-23 18:12:00,
2013-11-23 12:22:00,24.0,17.0,30.63,North,355,11.0,18.0,74,0.00,,,0.00,,2013-11-23 18:22:00,
2013-11-23 12:42:00,24.0,17.0,30.63,NNW,346,9.0,20.0,74,0.00,,,0.00,,2013-11-23 18:42:00,
2013-11-23 12:52:00,24.0,17.0,30.63,NW,321,11.0,22.0,74,0.00,,,0.00,,2013-11-23 18:52:00,
2013-11-23 13:22:00,24.0,16.0,30.63,North,5,10.0,23.0,71,0.00,,,0.00,,2013-11-23 19:22:00,
2013-11-23 13:42:00,24.0,16.0,30.63,NNW,340,9.0,21.0,71,0.00,,,0.00,,2013-11-23 19:42:00,
2013-11-23 13:52:00,24.0,16.0,30.64,NNW,348,9.0,23.0,71,0.00,,,0.00,,2013-11-23 19:52:00,
2013-11-23 14:11:00,23.0,15.0,30.64,North,360,11.0,23.0,72,0.00,,,0.00,,2013-11-23 20:11:00,
2013-11-23 14:22:00,24.0,15.0,30.65,NW,323,10.0,20.0,69,0.00,,,0.00,,2013-11-23 20:22:00,
2013-11-23 14:42:00,24.0,16.0,30.65,North,355,10.0,23.0,71,0.00,,,0.00,,2013-11-23 20:42:00,
2013-11-23 14:52:00,24.0,14.0,30.65,North,355,12.0,23.0,66,0.00,,,0.00,,2013-11-23 20:52:00,
2013-11-23 15:11:00,23.0,14.0,30.66,NNW,347,9.0,17.0,68,0.00,,,0.00,,2013-11-23 21:11:00,
2013-11-23 15:21:00,23.0,14.0,30.66,NW,306,10.0,19.0,67,0.00,,,0.00,,2013-11-23 21:21:00,
2013-11-23 15:43:00,23.0,13.0,30.67,North,350,8.0,20.0,65,0.00,,,0.00,,2013-11-23 21:43:00,
2013-11-23 15:53:00,23.0,13.0,30.67,NNW,337,6.0,17.0,65,0.00,,,0.00,,2013-11-23 21:53:00,
2013-11-23 16:13:00,23.0,13.0,30.68,NNW,347,9.0,16.0,65,0.00,,,0.00,,2013-11-23 22:13:00,
2013-11-23 16:23:00,23.0,13.0,30.68,NNW,339,9.0,20.0,65,0.00,,,0.00,,2013-11-23 22:23:00,
2013-11-23 16:43:00,22.0,12.0,30.69,NNW,345,8.0,14.0,65,0.00,,,0.00,,2013-11-23 22:43:00,
2013-11-23 16:52:00,22.0,12.0,30.69,NNW,337,6.0,15.0,66,0.00,,,0.00,,2013-11-23 22:52:00,
2013-11-23 17:12:00,22.0,12.0,30.70,North,355,7.0,14.0,66,0.00,,,0.00,,2013-11-23 23:12:00,
2013-11-23 17:21:00,22.0,13.0,30.70,NW,321,7.0,12.0,67,0.00,,,0.00,,2013-11-23 23:21:00,
2013-11-23 17:42:00,21.0,12.0,30.70,NNE,17,8.0,12.0,67,0.00,,,0.00,,2013-11-23 23:42:00,
2013-11-23 17:53:00,21.0,13.0,30.71,NNW,331,4.0,10.0,70,0.00,,,0.00,,2013-11-23 23:53:00,
2013-11-23 18:11:00,20.0,13.0,30.71,NNW,331,4.0,9.0,73,0.00,,,0.00,,2013-11-24 00:11:00,
2013-11-23 18:21:00,20.0,12.0,30.72,NNW,330,3.0,8.0,72,0.00,,,0.00,,2013-11-24 00:21:00,
2013-11-23 18:42:00,20.0,12.0,30.72,NNW,332,4.0,8.0,72,0.00,,,0.00,,2013-11-24 00:42:00,
2013-11-23 18:52:00,20.0,13.0,30.72,North,5,3.0,6.0,73,0.00,,,0.00,,2013-11-24 00:52:00,
2013-11-23 19:11:00,19.0,12.0,30.73,NNW,343,3.0,6.0,74,0.00,,,0.00,,2013-11-24 01:11:00,
2013-11-23 19:22:00,19.0,12.0,30.73,NNW,327,3.0,7.0,75,0.00,,,0.00,,2013-11-24 01:22:00,
2013-11-23 19:42:00,19.0,12.0,30.73,North,5,4.0,8.0,75,0.00,,,0.00,,2013-11-24 01:42:00,
2013-11-23 19:52:00,19.0,12.0,30.73,NNW,333,6.0,11.0,75,0.00,,,0.00,,2013-11-24 01:52:00,
2013-11-23 20:12:00,19.0,12.0,30.73,NNW,340,7.0,12.0,73,0.00,,,0.00,,2013-11-24 02:12:00,
2013-11-23 20:22:00,19.0,12.0,30.74,NNW,346,6.0,12.0,73,0.00,,,0.00,,2013-11-24 02:22:00,
2013-11-23 20:42:00,19.0,11.0,30.74,North,349,5.0,11.0,72,0.00,,,0.00,,2013-11-24 02:42:00,
2013-11-23 20:52:00,18.0,11.0,30.74,North,360,4.0,11.0,73,0.00,,,0.00,,2013-11-24 02:52:00,
2013-11-23 21:11:00,18.0,11.0,30.73,NNW,348,5.0,11.0,73,0.00,,,0.00,,2013-11-24 03:11:00,
2013-11-23 21:22:00,18.0,11.0,30.75,NNW,331,6.0,11.0,73,0.00,,,0.00,,2013-11-24 03:22:00,
2013-11-23 21:43:00,18.0,11.0,30.75,North,360,5.0,11.0,73,0.00,,,0.00,,2013-11-24 03:43:00,
2013-11-23 21:53:00,18.0,11.0,30.76,NNW,346,4.0,9.0,74,0.00,,,0.00,,2013-11-24 03:53:00,
2013-11-23 22:02:00,-999.0,-99.9,30.76,North,360,4.0,8.0,-999,0.00,,,0.00,,2013-11-24 04:02:00,
2013-11-23 22:23:00,17.0,11.0,30.76,North,351,4.0,9.0,76,0.00,,,0.00,,2013-11-24 04:23:00,
2013-11-23 22:42:00,17.0,11.0,30.76,NNE,27,7.0,12.0,76,0.00,,,0.00,,2013-11-24 04:42:00,
2013-11-23 22:53:00,17.0,10.0,30.76,NNW,344,6.0,13.0,75,0.00,,,0.00,,2013-11-24 04:53:00,
2013-11-23 23:12:00,17.0,10.0,30.75,NNE,25,6.0,10.0,75,0.00,,,0.00,,2013-11-24 05:12:00,
2013-11-23 23:22:00,16.0,9.0,30.75,NNE,30,7.0,14.0,75,0.00,,,0.00,,2013-11-24 05:22:00,
2013-11-23 23:43:00,16.0,10.0,30.74,NNE,26,6.0,12.0,76,0.00,,,0.00,,2013-11-24 05:43:00,
2013-11-23 23:53:00,16.0,10.0,30.75,North,355,5.0,10.0,76,0.00,,,0.00,,2013-11-24 05:53:00,